Regional Weather Roundup
Issued by NWS

Home | Current Version | Previous Version | Graphics & Text | Print | Product List | Glossary On
Versions: 1 2 3 4 5 6 7 8 9 10 11 12 13 14 15 16 17 18 19 20 21 22 23 24 25 26 27 28 29 30 31 32 33 34 35 36 37 38 39 40 41 42 43 44 45 46 47 48 49 50
000
ASUS45 KCYS 041210
RWRWY

WYOMING REGIONAL WEATHER ROUNDUP
NATIONAL WEATHER SERVICE CHEYENNE WY
600 AM MDT TUE AUG 04 2015

NOTE:  "FAIR" INDICATES FEW OR NO CLOUDS BELOW 12,000 FEET
WITH NO SIGNIFICANT WEATHER AND/OR OBSTRUCTIONS TO VISIBILITY.

WYZ001-041300-
YELLOWSTONE NATIONAL PARK

CITY           SKY/WX    TMP DP  RH WIND       PRES   REMARKS
LK YELLOWSTONE   N/A     48  46  93 CALM      30.26S
6HR MIN TEMP:  48; 6HR MAX TEMP:  51;

W YELLOWSTONE  NOT AVBL

$$
WYZ002>013-054>058-071-098>099-041300-
NORTHERN WYOMING

CITY           SKY/WX    TMP DP  RH WIND       PRES   REMARKS
JACKSON        MOCLDY    54  50  87 CALM      30.16
CODY           CLOUDY    61  48  63 CALM      30.01R
GREYBULL       FAIR      65  50  58 CALM      29.93R
6HR MIN TEMP:  63; 6HR MAX TEMP:  69;

WORLAND        CLOUDY    64  53  67 SE9       29.94S
6HR MIN TEMP:  62; 6HR MAX TEMP:  68;

SHERIDAN       FAIR      61  48  62 NW6       29.92R
6HR MIN TEMP:  61; 6HR MAX TEMP:  82;

BUFFALO        FAIR      60  48  64 N3        29.98S
6HR MIN TEMP:  60; 6HR MAX TEMP:  72;

GILLETTE       FAIR      60  51  72 CALM      29.97R
6HR MIN TEMP:  56; 6HR MAX TEMP:  68;

HULETT         FAIR      59  54  82 CALM      29.98R
NEWCASTLE      FAIR      61  54  77 CALM      29.99R

$$
WYZ014>020-022>026-101>103-041300-
CENTRAL WYOMING

CITY           SKY/WX    TMP DP  RH WIND       PRES   REMARKS
BIG PINEY      FAIR      52  49  89 NW8       30.18R
6HR MIN TEMP:  52; 6HR MAX TEMP:  56; 6HR PCP: TRACE;

PINEDALE       PTSUNNY   52  50  93 NW9       30.17S
DUBOIS         FAIR      55  45  67 W24       30.15R
LANDER         FAIR      58  52  80 E5        30.01F
6HR MIN TEMP:  57; 6HR MAX TEMP:  59; 6HR PCP:  0.03;

RIVERTON       FAIR      58  54  86 S8        30.03S
6HR MIN TEMP:  57; 6HR MAX TEMP:  60;

CASPER         CLOUDY    61  54  77 SW9       30.03R
6HR MIN TEMP:  57; 6HR MAX TEMP:  61;

DOUGLAS        CLOUDY    55  48  77 CALM      30.02R
6HR MIN TEMP:  52; 6HR MAX TEMP:  64;


$$
WYZ021-027>030-104>119-041300-
SOUTHERN WYOMING

CITY           SKY/WX    TMP DP  RH WIND       PRES   REMARKS
EVANSTON       FAIR      49  46  90 S6        30.24R
6HR MIN TEMP:  48; 6HR MAX TEMP:  52;

KEMMERER       FAIR      50  48  93 W13G18    30.23R
FORT BRIDGER   SUNNY     54  50  87 W10       30.25S
ROCK SPRINGS   FAIR      52  49  89 W22       30.18R
6HR MIN TEMP:  51; 6HR MAX TEMP:  54; 6HR PCP: TRACE;

DIXON          CLOUDY    59  48  67 S13G18    30.20F
RAWLINS        CLOUDY    55  49  80 SW18G24   30.15S
6HR MIN TEMP:  54; 6HR MAX TEMP:  57; 6HR PCP: TRACE;

SARATOGA       CLOUDY    55  46  71 SW8       30.19R
LARAMIE        CLOUDY    56  47  71 VRB3      30.16R
6HR MIN TEMP:  52; 6HR MAX TEMP:  56;

CHEYENNE       FAIR      59  47  64 NW7       30.08S
6HR MIN TEMP:  59; 6HR MAX TEMP:  68; 6HR PCP: TRACE;

TORRINGTON     MOCLDY    59  52  77 CALM      29.98R
6HR MIN TEMP:  57; 6HR MAX TEMP:  74;

PINE BLUFFS    FAIR      52  46  82 S3        30.05R

$$


USA.gov is the U.S. government's official web portal to all federal, state and local government web resources and services.